| time (UTC) | temp C | wind direction | speed KPH | gust KPH | rain 1hr cm | rain 24hr cm | rain mn cm | humidity % | barometer mb |
| 20260906104540 | 20 | 90 | 0.0 | 16.1 | 0.00 | 0.00 | 0.00 | 92 | 1014.0 |
| 20260906103038 | 20 | 82 | 3.2 | 9.7 | 0.00 | 0.00 | 0.00 | 92 | 1014.0 |
| 20260906101536 | 20 | 83 | 3.2 | 16.1 | 0.00 | 0.00 | 0.00 | 92 | 1013.9 |
| 20260906100034 | 21 | 61 | 8.0 | 14.5 | 0.00 | 0.00 | 0.00 | 92 | 1013.9 |
| 20260906094535 | 21 | 115 | 6.4 | 14.5 | 0.00 | 0.00 | 0.00 | 92 | 1013.7 |
| 20260906093035 | 21 | 43 | 1.6 | 9.7 | 0.00 | 0.00 | 0.00 | 92 | 1013.7 |
| 20260906091534 | 21 | 72 | 1.6 | 11.3 | 0.00 | 0.00 | 0.00 | 92 | 1013.9 |
| 20260906090031 | 21 | 82 | 0.0 | 9.7 | 0.00 | 0.00 | 0.00 | 92 | 1013.9 |
| 20260906084532 | 21 | 40 | 0.0 | 12.9 | 0.00 | 0.00 | 0.00 | 92 | 1013.8 |
| 20260906083029 | 21 | 348 | 0.0 | 6.4 | 0.00 | 0.00 | 0.00 | 92 | 1013.7 |
| 20260906081540 | 21 | 16 | 0.0 | 9.7 | 0.00 | 0.00 | 0.00 | 91 | 1013.6 |
| 20260906080031 | 21 | 19 | 0.0 | 11.3 | 0.00 | 0.00 | 0.00 | 91 | 1013.3 |
| 20260906074527 | 21 | 42 | 0.0 | 9.7 | 0.00 | 0.00 | 0.00 | 91 | 1013.3 |
| 20260906073027 | 21 | 53 | 0.0 | 6.4 | 0.00 | 0.00 | 0.00 | 91 | 1013.4 |
| 20260906071525 | 21 | 40 | 3.2 | 8.0 | 0.00 | 0.00 | 0.00 | 91 | 1013.5 |
| 20260906070024 | 21 | 60 | 4.8 | 11.3 | 0.00 | 0.00 | 0.00 | 91 | 1013.6 |
| 20260906064524 | 21 | 13 | 0.0 | 9.7 | 0.00 | 0.00 | 0.00 | 91 | 1013.7 |
| 20260906063023 | 21 | 57 | 0.0 | 4.8 | 0.00 | 0.00 | 0.00 | 91 | 1014.0 |
| 20260906061521 | 21 | 53 | 0.0 | 3.2 | 0.00 | 0.00 | 0.00 | 91 | 1014.0 |
| 20260906054517 | 21 | 24 | 0.0 | 4.8 | 0.00 | 0.00 | 0.00 | 90 | 1013.5 |
| 20260906053022 | 21 | 28 | 0.0 | 9.7 | 0.00 | 0.00 | 0.00 | 90 | 1013.5 |
| 20260906051516 | 21 | 53 | 1.6 | 6.4 | 0.00 | 0.00 | 0.00 | 90 | 1013.4 |
| 20260906050029 | 21 | 17 | 0.0 | 8.0 | 0.00 | 0.00 | 0.00 | 90 | 1013.4 |
| 20260906044522 | 21 | 40 | 0.0 | 6.4 | 0.00 | 0.00 | 0.00 | 89 | 1013.2 |
| 20260906043010 | 21 | 42 | 0.0 | 6.4 | 0.00 | 0.00 | 0.00 | 89 | 1013.2 |
| 20260906041609 | 21 | 51 | 0.0 | 9.7 | 0.00 | 0.00 | 0.00 | 88 | 1013.2 |
| 20260906040007 | 22 | 34 | 4.8 | 14.5 | 0.00 | 0.00 | 0.00 | 88 | 1013.1 |
| 20260906034505 | 22 | 42 | 0.0 | 9.7 | 0.00 | 0.00 | 0.00 | 88 | 1013.1 |
| 20260906033007 | 22 | 32 | 1.6 | 12.9 | 0.00 | 0.00 | 0.00 | 87 | 1013.0 |
| 20260906031604 | 22 | 49 | 1.6 | 14.5 | 0.00 | 0.00 | 0.00 | 86 | 1012.8 |
| 20260906030058 | 22 | 68 | 6.4 | 17.7 | 0.00 | 0.00 | 0.00 | 86 | 1012.6 |
| 20260906024555 | 23 | 34 | 3.2 | 14.5 | 0.00 | 0.00 | 0.00 | 85 | 1012.6 |
| 20260906023053 | 23 | 26 | 4.8 | 16.1 | 0.00 | 0.00 | 0.00 | 84 | 1012.6 |
| 20260906021550 | 23 | 42 | 6.4 | 19.3 | 0.00 | 0.00 | 0.00 | 84 | 1012.5 |
| 20260906020051 | 24 | 24 | 1.6 | 16.1 | 0.00 | 0.00 | 0.00 | 83 | 1012.3 |
| 20260906014544 | 25 | 70 | 6.4 | 17.7 | 0.00 | 0.00 | 0.00 | 82 | 1012.1 |
| 20260906013042 | 25 | 13 | 6.4 | 16.1 | 0.00 | 0.00 | 0.00 | 80 | 1012.1 |
| 20260906011541 | 26 | 78 | 8.0 | 16.1 | 0.00 | 0.00 | 0.00 | 79 | 1011.9 |
| 20260906010037 | 26 | 360 | 6.4 | 16.1 | 0.00 | 0.00 | 0.00 | 78 | 1011.4 |
| 20260906004537 | 27 | 121 | 8.0 | 20.9 | 0.00 | 0.00 | 0.00 | 77 | 1011.3 |
| 20260906003035 | 27 | 55 | 1.6 | 16.1 | 0.00 | 0.00 | 0.00 | 76 | 1011.1 |
| 20260906001535 | 28 | 22 | 4.8 | 11.3 | 0.00 | 0.00 | 0.00 | 75 | 1011.1 |
| 20260906000035 | 28 | 94 | 6.4 | 19.3 | 0.00 | 0.00 | 0.00 | 74 | 1010.8 |
| 20260905234534 | 29 | 39 | 6.4 | 22.5 | 0.00 | 0.00 | 0.00 | 73 | 1010.8 |
| 20260905233040 | 31 | 58 | 6.4 | 22.5 | 0.00 | 0.00 | 0.00 | 70 | 1010.8 |
| 20260905231533 | 32 | 9 | 0.0 | 12.9 | 0.00 | 0.00 | 0.00 | 66 | 1010.5 |
| 20260905230038 | 32 | 360 | 0.0 | 17.7 | 0.00 | 0.00 | 0.00 | 65 | 1010.3 |
| 20260905224634 | 32 | 319 | 8.0 | 16.1 | 0.00 | 0.00 | 0.00 | 64 | 1010.2 |
| 20260905223031 | 33 | 338 | 0.0 | 14.5 | 0.00 | 0.00 | 0.00 | 63 | 1010.2 |
| 20260905221531 | 33 | 348 | 8.0 | 16.1 | 0.00 | 0.00 | 0.00 | 62 | 1010.1 |
| 20260905220035 | 34 | 340 | 8.0 | 17.7 | 0.00 | 0.00 | 0.00 | 61 | 1010.1 |
| 20260905214529 | 34 | 9 | 4.8 | 14.5 | 0.00 | 0.00 | 0.00 | 61 | 1009.9 |
| 20260905213029 | 33 | 336 | 0.0 | 17.7 | 0.00 | 0.00 | 0.00 | 62 | 1010.1 |
| 20260905211528 | 35 | 15 | 8.0 | 17.7 | 0.00 | 0.00 | 0.00 | 60 | 1010.1 |
| 20260905210027 | 35 | 333 | 0.0 | 16.1 | 0.00 | 0.00 | 0.00 | 60 | 1010.0 |
| 20260905204527 | 35 | 338 | 8.0 | 16.1 | 0.00 | 0.00 | 0.00 | 60 | 1010.2 |
| 20260905203025 | 34 | 355 | 0.0 | 1.6 | 0.00 | 0.00 | 0.00 | 63 | 1010.3 |
| 20260905201526 | 35 | 17 | 9.7 | 19.3 | 0.00 | 0.00 | 0.00 | 58 | 1010.2 |
| 20260905200026 | 36 | 312 | 6.4 | 16.1 | 0.00 | 0.00 | 0.00 | 56 | 1010.3 |
| 20260905194523 | 36 | 284 | 4.8 | 14.5 | 0.00 | 0.00 | 0.00 | 55 | 1010.3 |
| 20260905193023 | 35 | 341 | 0.0 | 16.1 | 0.00 | 0.00 | 0.00 | 58 | 1010.6 |
| 20260905191520 | 37 | 342 | 8.0 | 17.7 | 0.00 | 0.00 | 0.00 | 52 | 1010.7 |
| 20260905190019 | 36 | 350 | 0.0 | 14.5 | 0.00 | 0.00 | 0.00 | 54 | 1010.8 |
| 20260905184518 | 36 | 333 | 1.6 | 12.9 | 0.00 | 0.00 | 0.00 | 55 | 1010.9 |
| 20260905183017 | 36 | 28 | 6.4 | 14.5 | 0.00 | 0.00 | 0.00 | 53 | 1011.0 |
| 20260905181516 | 36 | 319 | 0.0 | 16.1 | 0.00 | 0.00 | 0.00 | 54 | 1011.1 |
| 20260905180017 | 36 | 303 | 8.0 | 16.1 | 0.00 | 0.00 | 0.00 | 54 | 1011.2 |
| 20260905174513 | 36 | 279 | 6.4 | 16.1 | 0.00 | 0.00 | 0.00 | 55 | 1011.3 |
| 20260905173021 | 35 | 287 | 9.7 | 17.7 | 0.00 | 0.00 | 0.00 | 55 | 1011.2 |
| 20260905171519 | 35 | 336 | 0.0 | 9.7 | 0.00 | 0.00 | 0.00 | 55 | 1011.4 |
| 20260905170012 | 35 | 304 | 6.4 | 14.5 | 0.00 | 0.00 | 0.00 | 56 | 1011.6 |
| 20260905164511 | 35 | 329 | 8.0 | 16.1 | 0.00 | 0.00 | 0.00 | 54 | 1011.7 |
| 20260905161507 | 35 | 305 | 1.6 | 11.3 | 0.00 | 0.00 | 0.00 | 55 | 1011.5 |
| 20260905160011 | 35 | 285 | 3.2 | 12.9 | 0.00 | 0.00 | 0.00 | 55 | 1011.7 |
| 20260905154505 | 35 | 296 | 1.6 | 12.9 | 0.00 | 0.00 | 0.00 | 55 | 1011.7 |
| 20260905153007 | 35 | 304 | 1.6 | 14.5 | 0.00 | 0.00 | 0.00 | 56 | 1011.6 |
| 20260905151608 | 34 | 306 | 1.6 | 8.0 | 0.00 | 0.00 | 0.00 | 59 | 1011.4 |
| 20260905150059 | 33 | 311 | 3.2 | 9.7 | 0.00 | 0.00 | 0.00 | 59 | 1011.3 |
| 20260905144557 | 32 | 299 | 3.2 | 9.7 | 0.00 | 0.00 | 0.00 | 61 | 1011.4 |
| 20260905143051 | 31 | 302 | 4.8 | 8.0 | 0.00 | 0.00 | 0.00 | 65 | 1011.4 |
| 20260905141549 | 31 | 299 | 0.0 | 8.0 | 0.00 | 0.00 | 0.00 | 67 | 1011.7 |
| 20260905140046 | 30 | 300 | 3.2 | 8.0 | 0.00 | 0.00 | 0.00 | 70 | 1011.7 |
| 20260905134543 | 30 | 268 | 0.0 | 8.0 | 0.00 | 0.00 | 0.00 | 72 | 1011.5 |
| 20260905133042 | 29 | 266 | 0.0 | 6.4 | 0.00 | 0.00 | 0.00 | 73 | 1011.5 |
| 20260905131538 | 28 | 265 | 1.6 | 6.4 | 0.00 | 0.00 | 0.00 | 74 | 1011.5 |
| 20260905130036 | 28 | 316 | 3.2 | 4.8 | 0.00 | 0.00 | 0.00 | 77 | 1011.5 |
| 20260905124539 | 27 | 323 | 3.2 | 4.8 | 0.00 | 0.00 | 0.00 | 78 | 1011.5 |
| 20260905123031 | 27 | 333 | 0.0 | 0.0 | 0.00 | 0.00 | 0.00 | 80 | 1011.4 |
| 20260905121530 | 26 | 333 | 0.0 | 0.0 | 0.00 | 0.00 | 0.00 | 81 | 1011.4 |
| 20260905120030 | 26 | 333 | 0.0 | 0.0 | 0.00 | 0.00 | 0.00 | 83 | 1011.3 |
| 20260905114530 | 26 | 333 | 0.0 | 0.0 | 0.00 | 0.00 | 0.00 | 83 | 1011.1 |
| 20260905113029 | 26 | 333 | 0.0 | 0.0 | 0.00 | 0.00 | 0.00 | 82 | 1011.1 |
| 20260905111530 | 26 | 333 | 0.0 | 0.0 | 0.00 | 0.00 | 0.00 | 81 | 1011.0 |